TimeEDT,TemperatureF,Dew PointF,Humidity,Sea Level PressureIn,VisibilityMPH,Wind Direction,Wind SpeedMPH,Gust SpeedMPH,PrecipitationIn,Events,Conditions,WindDirDegrees,DateUTC
12:53 AM,73.9,63.0,68,29.65,10.0,NNW,16.1,-,N/A,,Clear,330,2012-10-27 04:53:00
1:53 AM,73.0,63.0,71,29.64,10.0,NW,15.0,23.0,N/A,,Clear,320,2012-10-27 05:53:00
2:53 AM,72.0,63.0,73,29.62,10.0,NW,13.8,21.9,N/A,,Clear,320,2012-10-27 06:53:00
3:53 AM,72.0,63.0,73,29.61,10.0,NW,12.7,-,N/A,,Clear,320,2012-10-27 07:53:00
4:53 AM,72.0,63.0,73,29.60,10.0,NW,12.7,-,N/A,,Clear,320,2012-10-27 08:53:00
5:53 AM,72.0,62.1,71,29.60,10.0,NW,12.7,-,N/A,,Clear,310,2012-10-27 09:53:00
6:53 AM,71.1,61.0,70,29.62,10.0,WNW,12.7,-,N/A,,Clear,300,2012-10-27 10:53:00
7:53 AM,73.0,60.1,64,29.64,10.0,NW,15.0,-,N/A,,Clear,310,2012-10-27 11:53:00
8:53 AM,75.0,61.0,62,29.65,10.0,NW,17.3,24.2,N/A,,Clear,320,2012-10-27 12:53:00
9:53 AM,78.1,61.0,56,29.66,10.0,NW,19.6,31.1,N/A,,Clear,320,2012-10-27 13:53:00
10:53 AM,80.1,62.1,54,29.68,10.0,NNW,20.7,28.8,N/A,,Clear,330,2012-10-27 14:53:00
11:53 AM,82.9,61.0,47,29.68,10.0,NW,24.2,33.4,N/A,,Clear,320,2012-10-27 15:53:00
12:53 PM,84.0,62.1,47,29.67,10.0,NW,19.6,25.3,N/A,,Partly Cloudy,320,2012-10-27 16:53:00
1:53 PM,84.0,59.0,43,29.64,10.0,NW,24.2,34.5,N/A,,Clear,320,2012-10-27 17:53:00
2:53 PM,82.9,61.0,47,29.63,10.0,NW,19.6,31.1,N/A,,Clear,320,2012-10-27 18:53:00
3:53 PM,82.9,63.0,51,29.64,10.0,NW,19.6,28.8,N/A,,Partly Cloudy,310,2012-10-27 19:53:00
4:53 PM,82.0,60.1,47,29.64,10.0,NW,15.0,26.5,N/A,,Clear,320,2012-10-27 20:53:00
5:53 PM,79.0,62.1,56,29.64,10.0,NW,13.8,23.0,N/A,,Clear,310,2012-10-27 21:53:00
6:53 PM,77.0,59.0,54,29.65,10.0,NW,16.1,26.5,N/A,,Clear,320,2012-10-27 22:53:00
7:53 PM,75.0,60.1,60,29.68,10.0,NW,13.8,23.0,N/A,,Clear,310,2012-10-27 23:53:00
8:53 PM,73.9,62.1,66,29.71,10.0,NW,15.0,21.9,N/A,,Clear,320,2012-10-28 00:53:00
9:53 PM,73.9,63.0,68,29.73,10.0,NW,10.4,-,N/A,,Clear,320,2012-10-28 01:53:00
10:53 PM,73.0,64.0,73,29.74,10.0,NW,9.2,-,N/A,,Clear,310,2012-10-28 02:53:00